Time,TemperatureF,DewpointF,PressureIn,WindDirection,WindDirectionDegrees,WindSpeedMPH,WindSpeedGustMPH,Humidity,HourlyPrecipIn,Conditions,Clouds,dailyrainin,SoftwareType,DateUTC
2013-03-10 00:00:00,46.0,28.4,30.17,NNE,22,0.0,3.0,50,0.00,CLR,,0.00,WeatherDisplay:10.37,2013-03-10 05:00:00,
2013-03-10 00:01:00,46.0,28.4,30.17,NNE,22,0.0,0.0,50,0.00,CLR,,0.00,WeatherDisplay:10.37,2013-03-10 05:01:00,
2013-03-10 00:06:00,46.0,28.4,30.17,NNE,22,0.0,0.0,50,0.00,CLR,,0.00,WeatherDisplay:10.37,2013-03-10 05:06:00,
2013-03-10 00:11:00,46.0,28.4,30.17,NNE,22,0.0,0.0,50,0.00,CLR,,0.00,WeatherDisplay:10.37,2013-03-10 05:11:00,
2013-03-10 00:16:00,46.2,28.6,30.16,NNE,22,3.5,3.5,50,0.00,CLR,,0.00,WeatherDisplay:10.37,2013-03-10 05:16:00,
2013-03-10 00:21:00,46.2,28.6,30.16,NNE,22,0.0,0.0,50,0.00,CLR,,0.00,WeatherDisplay:10.37,2013-03-10 05:21:00,
2013-03-10 00:26:00,46.2,28.6,30.16,NNE,22,0.0,0.0,50,0.00,CLR,,0.00,WeatherDisplay:10.37,2013-03-10 05:26:00,
2013-03-10 00:31:00,46.2,29.1,30.16,NNE,22,1.1,1.5,51,0.00,CLR,,0.00,WeatherDisplay:10.37,2013-03-10 05:31:00,
2013-03-10 00:36:00,46.2,28.6,30.17,NNE,22,4.6,4.6,50,0.00,CLR,,0.00,WeatherDisplay:10.37,2013-03-10 05:36:00,
2013-03-10 00:41:00,46.2,28.6,30.17,NNE,22,3.6,3.8,50,0.00,CLR,,0.00,WeatherDisplay:10.37,2013-03-10 05:41:00,
2013-03-10 00:46:00,46.6,28.9,30.16,NNE,22,0.0,0.5,50,0.00,CLR,,0.00,WeatherDisplay:10.37,2013-03-10 05:46:00,
2013-03-10 00:51:00,46.6,28.9,30.16,NNE,22,3.5,3.5,50,0.00,CLR,,0.00,WeatherDisplay:10.37,2013-03-10 05:51:00,
2013-03-10 00:56:00,46.6,28.9,30.17,NNE,22,3.5,3.5,50,0.00,CLR,,0.00,WeatherDisplay:10.37,2013-03-10 05:56:00,
2013-03-10 01:01:00,46.6,28.9,30.17,NNE,22,2.3,2.3,50,0.00,CLR,,0.00,WeatherDisplay:10.37,2013-03-10 06:01:00,
2013-03-10 01:06:00,46.6,28.9,30.17,NNE,22,0.0,0.0,50,0.00,CLR,,0.00,WeatherDisplay:10.37,2013-03-10 06:06:00,
2013-03-10 01:11:00,46.2,28.6,30.16,NNE,22,0.0,0.0,50,0.00,CLR,,0.00,WeatherDisplay:10.37,2013-03-10 06:11:00,
2013-03-10 01:16:00,46.2,28.6,30.17,NNE,22,1.1,1.3,50,0.00,CLR,,0.00,WeatherDisplay:10.37,2013-03-10 06:16:00,
2013-03-10 01:21:00,46.2,28.6,30.17,NNE,22,0.0,0.0,50,0.00,CLR,,0.00,WeatherDisplay:10.37,2013-03-10 06:21:00,
2013-03-10 01:26:00,46.0,28.9,30.17,NNE,22,0.0,0.0,51,0.00,CLR,,0.00,WeatherDisplay:10.37,2013-03-10 06:26:00,
2013-03-10 01:31:00,45.7,28.6,30.18,NNE,22,0.0,0.0,51,0.00,CLR,,0.00,WeatherDisplay:10.37,2013-03-10 06:31:00,
2013-03-10 01:36:00,45.5,28.4,30.17,NNE,22,0.0,0.0,51,0.00,CLR,,0.00,WeatherDisplay:10.37,2013-03-10 06:36:00,
2013-03-10 01:41:00,45.3,28.2,30.17,NNE,22,0.0,0.0,51,0.00,CLR,,0.00,WeatherDisplay:10.37,2013-03-10 06:41:00,
2013-03-10 01:46:00,45.0,27.9,30.17,NNE,22,0.0,0.0,51,0.00,CLR,,0.00,WeatherDisplay:10.37,2013-03-10 06:46:00,
2013-03-10 01:51:00,45.0,28.4,30.17,NNE,22,0.0,0.0,52,0.00,CLR,,0.00,WeatherDisplay:10.37,2013-03-10 06:51:00,
2013-03-10 01:56:00,44.8,28.2,30.16,NNE,22,1.4,1.5,52,0.00,CLR,,0.00,WeatherDisplay:10.37,2013-03-10 06:56:00,
2013-03-10 03:01:00,44.8,28.2,30.16,NNE,22,0.0,0.0,52,0.00,CLR,,0.00,WeatherDisplay:10.37,2013-03-10 07:01:00,
2013-03-10 03:06:00,44.8,28.2,30.16,NNE,22,0.0,0.0,52,0.00,CLR,,0.00,WeatherDisplay:10.37,2013-03-10 07:06:00,
2013-03-10 03:11:00,44.4,27.9,30.16,NNE,22,0.0,0.0,52,0.00,CLR,,0.00,WeatherDisplay:10.37,2013-03-10 07:11:00,
2013-03-10 03:16:00,44.4,27.9,30.16,NNE,22,0.0,0.0,52,0.00,CLR,,0.00,WeatherDisplay:10.37,2013-03-10 07:16:00,
2013-03-10 03:21:00,44.2,27.7,30.16,NNE,22,1.2,0.0,52,0.00,CLR,,0.00,WeatherDisplay:10.37,2013-03-10 07:21:00,
2013-03-10 03:26:00,44.1,28.0,30.15,NNE,22,0.0,0.0,53,0.00,CLR,,0.00,WeatherDisplay:10.37,2013-03-10 07:26:00,
2013-03-10 03:31:00,43.9,27.8,30.15,NNE,22,0.0,0.0,53,0.00,CLR,,0.00,WeatherDisplay:10.37,2013-03-10 07:31:00,
2013-03-10 03:36:00,44.1,28.0,30.15,NNE,22,4.6,4.8,53,0.00,CLR,,0.00,WeatherDisplay:10.37,2013-03-10 07:36:00,
2013-03-10 03:41:00,44.1,28.0,30.15,NNE,22,0.0,0.0,53,0.00,CLR,,0.00,WeatherDisplay:10.37,2013-03-10 07:41:00,
2013-03-10 03:46:00,44.1,28.0,30.15,NNE,22,0.0,0.0,53,0.00,CLR,,0.00,WeatherDisplay:10.37,2013-03-10 07:46:00,
2013-03-10 03:51:00,43.7,27.7,30.15,NNE,22,1.1,1.1,53,0.00,CLR,,0.00,WeatherDisplay:10.37,2013-03-10 07:51:00,
2013-03-10 03:56:00,43.7,27.7,30.14,NNE,22,1.1,1.1,53,0.00,CLR,,0.00,WeatherDisplay:10.37,2013-03-10 07:56:00,
2013-03-10 04:01:00,43.7,27.7,30.14,NNE,22,0.0,0.0,53,0.00,CLR,,0.00,WeatherDisplay:10.37,2013-03-10 08:01:00,
2013-03-10 04:06:00,43.5,28.0,30.14,NNE,22,0.0,0.0,54,0.00,CLR,,0.00,WeatherDisplay:10.37,2013-03-10 08:06:00,
2013-03-10 04:11:00,43.3,27.8,30.14,NNE,22,0.0,0.0,54,0.00,CLR,,0.00,WeatherDisplay:10.37,2013-03-10 08:11:00,
2013-03-10 04:16:00,43.3,27.8,30.14,NNE,22,0.0,0.0,54,0.00,CLR,,0.00,WeatherDisplay:10.37,2013-03-10 08:16:00,
2013-03-10 04:21:00,43.3,27.8,30.14,NNE,22,2.3,2.3,54,0.00,CLR,,0.00,WeatherDisplay:10.37,2013-03-10 08:21:00,
2013-03-10 04:26:00,43.3,27.8,30.13,NNE,22,0.0,0.0,54,0.00,CLR,,0.00,WeatherDisplay:10.37,2013-03-10 08:26:00,
2013-03-10 04:31:00,43.5,28.0,30.13,NNE,22,0.0,0.0,54,0.00,CLR,,0.00,WeatherDisplay:10.37,2013-03-10 08:31:00,
2013-03-10 04:36:00,43.5,28.0,30.13,NNE,22,2.3,2.3,54,0.00,CLR,,0.00,WeatherDisplay:10.37,2013-03-10 08:36:00,
2013-03-10 04:41:00,43.5,28.0,30.13,NNE,22,0.0,0.0,54,0.00,CLR,,0.00,WeatherDisplay:10.37,2013-03-10 08:41:00,
2013-03-10 04:46:00,43.5,28.0,30.14,NNE,22,3.5,3.5,54,0.00,CLR,,0.00,WeatherDisplay:10.37,2013-03-10 08:46:00,
2013-03-10 04:51:00,43.5,28.0,30.14,NNE,22,0.0,0.0,54,0.00,CLR,,0.00,WeatherDisplay:10.37,2013-03-10 08:51:00,
2013-03-10 04:56:00,43.3,27.8,30.13,NNE,22,0.0,0.0,54,0.00,CLR,,0.00,WeatherDisplay:10.37,2013-03-10 08:56:00,
2013-03-10 05:01:00,43.3,27.8,30.13,NNE,22,1.1,1.1,54,0.00,CLR,,0.00,WeatherDisplay:10.37,2013-03-10 09:01:00,
2013-03-10 05:06:00,43.3,27.8,30.13,NNE,22,1.1,0.0,54,0.00,CLR,,0.00,WeatherDisplay:10.37,2013-03-10 09:06:00,
2013-03-10 05:11:00,43.3,27.8,30.13,NNE,22,3.9,4.0,54,0.00,CLR,,0.00,WeatherDisplay:10.37,2013-03-10 09:11:00,
2013-03-10 05:16:00,43.3,27.8,30.13,NNE,22,0.0,0.3,54,0.00,CLR,,0.00,WeatherDisplay:10.37,2013-03-10 09:16:00,
2013-03-10 05:21:00,43.3,27.8,30.13,NNE,22,3.5,3.5,54,0.00,CLR,,0.00,WeatherDisplay:10.37,2013-03-10 09:21:00,
2013-03-10 05:26:00,43.3,28.2,30.13,NNE,22,0.0,0.0,55,0.00,CLR,,0.00,WeatherDisplay:10.37,2013-03-10 09:26:00,
2013-03-10 05:31:00,43.5,28.0,30.13,NNE,22,0.0,0.0,54,0.00,CLR,,0.00,WeatherDisplay:10.37,2013-03-10 09:31:00,
2013-03-10 05:36:00,43.5,28.0,30.13,NNE,22,2.3,2.3,54,0.00,CLR,,0.00,WeatherDisplay:10.37,2013-03-10 09:36:00,
2013-03-10 05:41:00,43.5,28.0,30.13,NNE,22,0.0,0.0,54,0.00,CLR,,0.00,WeatherDisplay:10.37,2013-03-10 09:41:00,
2013-03-10 05:46:00,43.3,27.8,30.13,NNE,22,0.0,0.0,54,0.00,CLR,,0.00,WeatherDisplay:10.37,2013-03-10 09:46:00,
2013-03-10 05:51:00,43.3,28.2,30.13,NNE,22,0.0,0.0,55,0.00,CLR,,0.00,WeatherDisplay:10.37,2013-03-10 09:51:00,
2013-03-10 05:56:00,43.3,28.2,30.13,NNE,22,0.0,0.0,55,0.00,CLR,,0.00,WeatherDisplay:10.37,2013-03-10 09:56:00,
2013-03-10 06:01:00,43.5,28.4,30.13,NNE,22,0.0,0.0,55,0.00,CLR,,0.00,WeatherDisplay:10.37,2013-03-10 10:01:00,
2013-03-10 06:06:00,43.3,28.2,30.14,NNE,22,0.0,0.0,55,0.00,CLR,,0.00,WeatherDisplay:10.37,2013-03-10 10:06:00,
2013-03-10 06:11:00,43.2,28.1,30.14,NNE,22,0.0,0.0,55,0.00,CLR,,0.00,WeatherDisplay:10.37,2013-03-10 10:11:00,
2013-03-10 06:16:00,43.2,28.1,30.13,NNE,22,0.0,0.0,55,0.00,CLR,,0.00,WeatherDisplay:10.37,2013-03-10 10:16:00,
2013-03-10 06:21:00,43.3,28.2,30.13,NNE,22,2.3,2.3,55,0.00,CLR,,0.00,WeatherDisplay:10.37,2013-03-10 10:21:00,
2013-03-10 06:26:00,43.5,28.4,30.13,NNE,22,1.1,1.8,55,0.00,CLR,,0.00,WeatherDisplay:10.37,2013-03-10 10:26:00,
2013-03-10 06:31:00,43.7,28.6,30.13,NNE,22,5.8,5.8,55,0.00,CLR,,0.00,WeatherDisplay:10.37,2013-03-10 10:31:00,
2013-03-10 06:36:00,43.9,28.7,30.13,NNE,22,0.0,0.0,55,0.00,CLR,,0.00,WeatherDisplay:10.37,2013-03-10 10:36:00,
2013-03-10 06:41:00,44.4,28.8,30.13,NNE,22,0.0,0.0,54,0.00,CLR,,0.00,WeatherDisplay:10.37,2013-03-10 10:41:00,
2013-03-10 06:46:00,44.4,28.8,30.14,NNE,22,4.6,4.6,54,0.00,CLR,,0.00,WeatherDisplay:10.37,2013-03-10 10:46:00,
2013-03-10 06:51:00,44.6,29.0,30.13,NNE,22,2.3,2.5,54,0.00,CLR,,0.00,WeatherDisplay:10.37,2013-03-10 10:51:00,
2013-03-10 06:56:00,44.4,28.8,30.13,NNE,22,0.0,0.0,54,0.00,CLR,,0.00,WeatherDisplay:10.37,2013-03-10 10:56:00,
2013-03-10 07:02:00,44.4,28.3,30.14,NNE,22,3.5,3.8,53,0.00,CLR,,0.00,WeatherDisplay:10.37,2013-03-10 11:02:00,
2013-03-10 07:07:00,44.2,28.6,30.13,NNE,22,1.2,1.3,54,0.00,CLR,,0.00,WeatherDisplay:10.37,2013-03-10 11:07:00,
2013-03-10 07:12:00,44.2,28.6,30.14,NNE,22,1.4,1.4,54,0.00,CLR,,0.00,WeatherDisplay:10.37,2013-03-10 11:12:00,
2013-03-10 07:17:00,43.9,28.3,30.14,NNE,22,0.0,0.0,54,0.00,CLR,,0.00,WeatherDisplay:10.37,2013-03-10 11:17:00,
2013-03-10 07:22:00,43.5,28.0,30.14,NNE,22,1.1,0.0,54,0.00,CLR,,0.00,WeatherDisplay:10.37,2013-03-10 11:22:00,
2013-03-10 07:27:00,43.5,28.4,30.14,NNE,22,1.1,1.3,55,0.00,CLR,,0.00,WeatherDisplay:10.37,2013-03-10 11:27:00,
2013-03-10 07:32:00,43.3,28.2,30.14,NNE,22,1.1,1.5,55,0.00,CLR,,0.00,WeatherDisplay:10.37,2013-03-10 11:32:00,
2013-03-10 07:37:00,43.5,28.4,30.14,NNE,22,0.0,0.0,55,0.00,CLR,,0.00,WeatherDisplay:10.37,2013-03-10 11:37:00,
2013-03-10 07:42:00,43.7,28.6,30.14,NNE,22,4.6,4.6,55,0.00,CLR,,0.00,WeatherDisplay:10.37,2013-03-10 11:42:00,
2013-03-10 07:47:00,43.7,28.6,30.14,NNE,22,5.8,5.8,55,0.00,CLR,,0.00,WeatherDisplay:10.37,2013-03-10 11:47:00,
2013-03-10 07:52:00,43.5,28.4,30.13,NNE,22,0.0,0.0,55,0.00,CLR,,0.00,WeatherDisplay:10.37,2013-03-10 11:52:00,
2013-03-10 07:57:00,43.5,28.4,30.13,NNE,22,2.3,2.3,55,0.00,CLR,,0.00,WeatherDisplay:10.37,2013-03-10 11:57:00,
2013-03-10 08:02:00,43.3,28.2,30.13,NNE,22,0.0,0.0,55,0.00,CLR,,0.00,WeatherDisplay:10.37,2013-03-10 12:02:00,
2013-03-10 08:07:00,43.5,28.4,30.13,NNE,22,1.1,1.1,55,0.00,CLR,,0.00,WeatherDisplay:10.37,2013-03-10 12:07:00,
2013-03-10 08:12:00,43.5,28.4,30.13,NNE,22,2.3,0.0,55,0.00,CLR,,0.00,WeatherDisplay:10.37,2013-03-10 12:12:00,
2013-03-10 08:17:00,43.7,28.6,30.14,NNE,22,0.0,0.0,55,0.00,CLR,,0.00,WeatherDisplay:10.37,2013-03-10 12:17:00,
2013-03-10 08:22:00,43.7,28.6,30.14,NNE,22,2.3,2.3,55,0.00,CLR,,0.00,WeatherDisplay:10.37,2013-03-10 12:22:00,
2013-03-10 08:27:00,43.9,28.7,30.14,NNE,22,2.3,2.3,55,0.00,CLR,,0.00,WeatherDisplay:10.37,2013-03-10 12:27:00,
2013-03-10 08:32:00,44.2,29.1,30.14,NNE,22,2.3,2.3,55,0.00,CLR,,0.00,WeatherDisplay:10.37,2013-03-10 12:32:00,
2013-03-10 08:37:00,44.4,29.2,30.14,NNE,22,1.4,1.5,55,0.00,CLR,,0.00,WeatherDisplay:10.37,2013-03-10 12:37:00,
2013-03-10 08:42:00,44.8,29.1,30.15,NNE,22,0.0,0.0,54,0.00,CLR,,0.00,WeatherDisplay:10.37,2013-03-10 12:42:00,
2013-03-10 08:47:00,45.1,29.5,30.16,NNE,22,0.0,0.0,54,0.00,CLR,,0.00,WeatherDisplay:10.37,2013-03-10 12:47:00,
2013-03-10 08:52:00,45.3,30.1,30.16,NNE,22,1.1,1.1,55,0.00,CLR,,0.00,WeatherDisplay:10.37,2013-03-10 12:52:00,
2013-03-10 08:57:00,46.0,30.3,30.17,NNE,22,3.6,3.8,54,0.00,CLR,,0.00,WeatherDisplay:10.37,2013-03-10 12:57:00,
2013-03-10 09:02:00,46.2,30.5,30.17,NNE,22,0.0,0.0,54,0.00,CLR,,0.00,WeatherDisplay:10.37,2013-03-10 13:02:00,
2013-03-10 09:07:00,46.6,30.3,30.16,NNE,22,4.6,4.8,53,0.00,CLR,,0.00,WeatherDisplay:10.37,2013-03-10 13:07:00,
2013-03-10 09:12:00,46.6,30.3,30.17,NNE,22,2.3,2.3,53,0.00,CLR,,0.00,WeatherDisplay:10.37,2013-03-10 13:12:00,
2013-03-10 09:17:00,46.8,30.5,30.17,NNE,22,3.5,3.5,53,0.00,CLR,,0.00,WeatherDisplay:10.37,2013-03-10 13:17:00,
2013-03-10 09:22:00,46.8,30.5,30.16,NNE,22,0.0,0.0,53,0.00,CLR,,0.00,WeatherDisplay:10.37,2013-03-10 13:22:00,
2013-03-10 09:27:00,46.9,30.7,30.16,NNE,22,2.3,2.3,53,0.00,CLR,,0.00,WeatherDisplay:10.37,2013-03-10 13:27:00,
2013-03-10 09:32:00,46.9,30.7,30.17,NNE,22,1.1,0.0,53,0.00,CLR,,0.00,WeatherDisplay:10.37,2013-03-10 13:32:00,
2013-03-10 09:37:00,46.9,30.7,30.17,NNE,22,0.0,0.0,53,0.00,CLR,,0.00,WeatherDisplay:10.37,2013-03-10 13:37:00,
2013-03-10 09:42:00,47.1,30.4,30.17,NNE,22,0.0,0.0,52,0.00,CLR,,0.00,WeatherDisplay:10.37,2013-03-10 13:42:00,
2013-03-10 09:47:00,47.3,30.5,30.18,NNE,22,4.6,4.6,52,0.00,CLR,,0.00,WeatherDisplay:10.37,2013-03-10 13:47:00,
2013-03-10 09:52:00,47.5,30.7,30.17,NNE,22,2.3,2.5,52,0.00,CLR,,0.00,WeatherDisplay:10.37,2013-03-10 13:52:00,
2013-03-10 09:57:00,47.7,30.9,30.17,NNE,22,3.6,3.6,52,0.00,CLR,,0.00,WeatherDisplay:10.37,2013-03-10 13:57:00,
2013-03-10 10:02:00,47.7,30.9,30.17,NNE,22,2.3,2.5,52,0.00,CLR,,0.00,WeatherDisplay:10.37,2013-03-10 14:02:00,
2013-03-10 10:07:00,47.5,30.7,30.17,NNE,22,2.7,2.8,52,0.00,CLR,,0.00,WeatherDisplay:10.37,2013-03-10 14:07:00,
2013-03-10 10:12:00,47.8,31.0,30.17,NNE,22,0.0,0.0,52,0.00,CLR,,0.00,WeatherDisplay:10.37,2013-03-10 14:12:00,
2013-03-10 10:17:00,47.8,31.0,30.17,NNE,22,4.6,4.6,52,0.00,CLR,,0.00,WeatherDisplay:10.37,2013-03-10 14:17:00,
2013-03-10 10:22:00,48.0,30.7,30.17,NNE,22,2.7,2.7,51,0.00,CLR,,0.00,WeatherDisplay:10.37,2013-03-10 14:22:00,
2013-03-10 10:27:00,48.4,31.1,30.17,NNE,22,1.1,1.1,51,0.00,CLR,,0.00,WeatherDisplay:10.37,2013-03-10 14:27:00,
2013-03-10 10:32:00,48.7,31.4,30.17,NNE,22,5.8,6.0,51,0.00,CLR,,0.00,WeatherDisplay:10.37,2013-03-10 14:32:00,
2013-03-10 10:37:00,49.1,31.7,30.18,NNE,22,4.6,4.6,51,0.00,CLR,,0.00,WeatherDisplay:10.37,2013-03-10 14:37:00,
2013-03-10 10:42:00,49.6,32.2,30.18,NNE,22,6.3,6.3,51,0.00,CLR,,0.00,WeatherDisplay:10.37,2013-03-10 14:42:00,
2013-03-10 10:47:00,50.2,32.7,30.18,NNE,22,4.6,4.6,51,0.00,CLR,,0.00,WeatherDisplay:10.37,2013-03-10 14:47:00,
2013-03-10 10:52:00,52.5,34.4,30.18,NNE,22,1.1,1.5,50,0.00,CLR,,0.00,WeatherDisplay:10.37,2013-03-10 14:52:00,
2013-03-10 10:57:00,54.3,35.5,30.18,NNE,22,2.3,2.3,49,0.00,CLR,,0.00,WeatherDisplay:10.37,2013-03-10 14:57:00,
2013-03-10 11:02:00,55.2,34.8,30.18,NNE,22,5.8,5.8,46,0.00,CLR,,0.00,WeatherDisplay:10.37,2013-03-10 15:02:00,
2013-03-10 11:07:00,55.6,35.1,30.18,NNE,22,8.1,8.1,46,0.00,CLR,,0.00,WeatherDisplay:10.37,2013-03-10 15:07:00,
2013-03-10 11:12:00,55.6,34.0,30.17,NNE,22,6.9,6.9,44,0.00,CLR,,0.00,WeatherDisplay:10.37,2013-03-10 15:12:00,
2013-03-10 11:17:00,55.6,34.6,30.17,NNE,22,5.8,5.8,45,0.00,CLR,,0.00,WeatherDisplay:10.37,2013-03-10 15:17:00,
2013-03-10 11:22:00,56.1,35.1,30.17,NNE,22,5.8,5.8,45,0.00,CLR,,0.00,WeatherDisplay:10.37,2013-03-10 15:22:00,
2013-03-10 11:27:00,56.8,35.7,30.17,NNE,22,1.1,1.3,45,0.00,CLR,,0.00,WeatherDisplay:10.37,2013-03-10 15:27:00,
2013-03-10 11:32:00,57.0,35.3,30.17,NNE,22,0.0,0.0,44,0.00,CLR,,0.00,WeatherDisplay:10.37,2013-03-10 15:32:00,
2013-03-10 11:37:00,57.6,35.8,30.17,NNE,22,2.3,2.8,44,0.00,CLR,,0.00,WeatherDisplay:10.37,2013-03-10 15:37:00,
2013-03-10 11:42:00,57.9,35.5,30.17,NNE,22,0.7,0.7,43,0.00,CLR,,0.00,WeatherDisplay:10.37,2013-03-10 15:42:00,
2013-03-10 11:47:00,59.2,36.1,30.17,NNE,22,9.2,9.2,42,0.00,CLR,,0.00,WeatherDisplay:10.37,2013-03-10 15:47:00,
2013-03-10 11:52:00,59.2,36.1,30.17,NNE,22,0.0,0.0,42,0.00,CLR,,0.00,WeatherDisplay:10.37,2013-03-10 15:52:00,
2013-03-10 11:57:00,59.2,36.1,30.16,NNE,22,2.3,2.3,42,0.00,CLR,,0.00,WeatherDisplay:10.37,2013-03-10 15:57:00,
2013-03-10 12:02:00,59.7,36.6,30.16,NNE,22,2.3,2.3,42,0.00,CLR,,0.00,WeatherDisplay:10.37,2013-03-10 16:02:00,
2013-03-10 12:07:00,61.0,36.5,30.16,NNE,22,4.6,4.6,40,0.00,CLR,,0.00,WeatherDisplay:10.37,2013-03-10 16:07:00,
2013-03-10 12:12:00,60.6,36.1,30.15,NNE,22,4.6,0.0,40,0.00,CLR,,0.00,WeatherDisplay:10.37,2013-03-10 16:12:00,
2013-03-10 12:17:00,60.4,36.6,30.15,NNE,22,8.1,8.1,41,0.00,CLR,,0.00,WeatherDisplay:10.37,2013-03-10 16:17:00,
2013-03-10 12:22:00,61.2,37.3,30.15,NNE,22,2.3,4.4,41,0.00,CLR,,0.00,WeatherDisplay:10.37,2013-03-10 16:22:00,
2013-03-10 12:27:00,63.3,37.9,30.15,NNE,22,5.8,5.8,39,0.00,CLR,,0.00,WeatherDisplay:10.37,2013-03-10 16:27:00,
2013-03-10 12:32:00,65.3,39.0,30.15,NNE,22,3.5,3.5,38,0.00,CLR,,0.00,WeatherDisplay:10.37,2013-03-10 16:32:00,
2013-03-10 12:37:00,65.7,38.7,30.15,NNE,22,1.1,1.1,37,0.00,CLR,,0.00,WeatherDisplay:10.37,2013-03-10 16:37:00,
2013-03-10 12:42:00,64.8,37.9,30.15,NNE,22,3.5,3.5,37,0.00,CLR,,0.00,WeatherDisplay:10.37,2013-03-10 16:42:00,
2013-03-10 12:47:00,64.6,37.7,30.15,NNE,22,1.1,1.1,37,0.00,CLR,,0.00,WeatherDisplay:10.37,2013-03-10 16:47:00,
2013-03-10 12:52:00,66.0,39.0,30.14,NNE,22,0.0,0.4,37,0.00,CLR,,0.00,WeatherDisplay:10.37,2013-03-10 16:52:00,
2013-03-10 12:57:00,66.6,38.8,30.15,NNE,22,4.6,4.6,36,0.00,CLR,,0.00,WeatherDisplay:10.37,2013-03-10 16:57:00,
2013-03-10 13:02:00,66.6,38.8,30.14,NNE,22,6.9,6.9,36,0.00,CLR,,0.00,WeatherDisplay:10.37,2013-03-10 17:02:00,
2013-03-10 13:07:00,67.3,39.4,30.14,NNE,22,1.2,1.3,36,0.00,CLR,,0.00,WeatherDisplay:10.37,2013-03-10 17:07:00,
2013-03-10 13:12:00,68.4,40.4,30.14,NNE,22,1.1,1.2,36,0.00,CLR,,0.00,WeatherDisplay:10.37,2013-03-10 17:12:00,
2013-03-10 13:17:00,70.7,41.7,30.14,NNE,22,1.9,1.9,35,0.00,CLR,,0.00,WeatherDisplay:10.37,2013-03-10 17:17:00,
2013-03-10 13:22:00,71.8,41.1,30.14,NNE,22,2.3,2.6,33,0.00,CLR,,0.00,WeatherDisplay:10.37,2013-03-10 17:22:00,
2013-03-10 13:28:00,73.6,42.7,30.14,NNE,22,3.5,3.7,33,0.00,CLR,,0.00,WeatherDisplay:10.37,2013-03-10 17:28:00,
2013-03-10 13:33:00,74.8,43.0,30.14,NNE,22,6.9,7.5,32,0.00,CLR,,0.00,WeatherDisplay:10.37,2013-03-10 17:33:00,
2013-03-10 13:38:00,75.7,42.9,30.13,NNE,22,3.5,3.5,31,0.00,CLR,,0.00,WeatherDisplay:10.37,2013-03-10 17:38:00,
2013-03-10 13:43:00,75.6,41.9,30.13,NNE,22,4.6,4.6,30,0.00,CLR,,0.00,WeatherDisplay:10.37,2013-03-10 17:43:00,
2013-03-10 13:48:00,74.8,41.3,30.13,NNE,22,2.3,2.3,30,0.00,CLR,,0.00,WeatherDisplay:10.37,2013-03-10 17:48:00,
2013-03-10 13:53:00,74.8,42.2,30.14,NNE,22,4.6,4.6,31,0.00,CLR,,0.00,WeatherDisplay:10.37,2013-03-10 17:53:00,
2013-03-10 13:58:00,75.0,41.5,30.13,NNE,22,4.6,4.6,30,0.00,CLR,,0.00,WeatherDisplay:10.37,2013-03-10 17:58:00,
2013-03-10 14:03:00,74.3,41.7,30.13,NNE,22,3.5,3.5,31,0.00,CLR,,0.00,WeatherDisplay:10.37,2013-03-10 18:03:00,
2013-03-10 14:08:00,73.2,40.8,30.12,NNE,22,2.3,2.4,31,0.00,CLR,,0.00,WeatherDisplay:10.37,2013-03-10 18:08:00,
2013-03-10 14:13:00,73.9,42.2,30.12,NNE,22,3.6,3.8,32,0.00,CLR,,0.00,WeatherDisplay:10.37,2013-03-10 18:13:00,
2013-03-10 14:18:00,74.7,42.8,30.11,NNE,22,2.3,2.4,32,0.00,CLR,,0.00,WeatherDisplay:10.37,2013-03-10 18:18:00,
2013-03-10 14:23:00,74.3,41.7,30.11,NNE,22,3.5,3.5,31,0.00,CLR,,0.00,WeatherDisplay:10.37,2013-03-10 18:23:00,
2013-03-10 14:28:00,74.1,40.7,30.11,NNE,22,5.8,5.8,30,0.00,CLR,,0.00,WeatherDisplay:10.37,2013-03-10 18:28:00,
2013-03-10 14:33:00,73.2,40.8,30.11,NNE,22,3.6,3.8,31,0.00,CLR,,0.00,WeatherDisplay:10.37,2013-03-10 18:33:00,
2013-03-10 14:38:00,72.5,41.0,30.11,NNE,22,5.8,5.8,32,0.00,CLR,,0.00,WeatherDisplay:10.37,2013-03-10 18:38:00,
2013-03-10 14:43:00,71.1,39.7,30.11,NNE,22,0.0,2.6,32,0.00,CLR,,0.00,WeatherDisplay:10.37,2013-03-10 18:43:00,
2013-03-10 14:48:00,70.3,39.9,30.10,NNE,22,5.8,6.3,33,0.00,CLR,,0.00,WeatherDisplay:10.37,2013-03-10 18:48:00,
2013-03-10 14:53:00,69.6,39.2,30.10,NNE,22,2.3,2.3,33,0.00,CLR,,0.00,WeatherDisplay:10.37,2013-03-10 18:53:00,
2013-03-10 14:58:00,69.3,39.7,30.10,NNE,22,2.4,2.4,34,0.00,CLR,,0.00,WeatherDisplay:10.37,2013-03-10 18:58:00,
2013-03-10 15:03:00,70.3,40.6,30.10,NNE,22,3.5,3.5,34,0.00,CLR,,0.00,WeatherDisplay:10.37,2013-03-10 19:03:00,
2013-03-10 15:08:00,71.8,41.1,30.09,NNE,22,3.5,3.5,33,0.00,CLR,,0.00,WeatherDisplay:10.37,2013-03-10 19:08:00,
2013-03-10 15:13:00,71.8,40.3,30.09,NNE,22,4.6,4.6,32,0.00,CLR,,0.00,WeatherDisplay:10.37,2013-03-10 19:13:00,
2013-03-10 15:18:00,70.9,40.3,30.09,NNE,22,5.8,5.8,33,0.00,CLR,,0.00,WeatherDisplay:10.37,2013-03-10 19:18:00,
2013-03-10 15:23:00,70.3,39.9,30.08,NNE,22,1.1,1.1,33,0.00,CLR,,0.00,WeatherDisplay:10.37,2013-03-10 19:23:00,
2013-03-10 15:28:00,69.6,40.0,30.08,NNE,22,0.2,0.3,34,0.00,CLR,,0.00,WeatherDisplay:10.37,2013-03-10 19:28:00,
2013-03-10 15:33:00,70.2,40.5,30.08,NNE,22,3.5,3.5,34,0.00,CLR,,0.00,WeatherDisplay:10.37,2013-03-10 19:33:00,
2013-03-10 15:38:00,70.3,40.6,30.08,NNE,22,3.6,3.6,34,0.00,CLR,,0.00,WeatherDisplay:10.37,2013-03-10 19:38:00,
2013-03-10 15:43:00,69.6,39.2,30.08,NNE,22,1.1,1.1,33,0.00,CLR,,0.00,WeatherDisplay:10.37,2013-03-10 19:43:00,
2013-03-10 15:48:00,68.5,39.0,30.08,NNE,22,5.8,5.8,34,0.00,CLR,,0.00,WeatherDisplay:10.37,2013-03-10 19:48:00,
2013-03-10 15:53:00,67.8,38.4,30.08,NNE,22,9.2,9.2,34,0.00,CLR,,0.00,WeatherDisplay:10.37,2013-03-10 19:53:00,
2013-03-10 15:58:00,67.6,39.0,30.08,NNE,22,2.4,2.5,35,0.00,CLR,,0.00,WeatherDisplay:10.37,2013-03-10 19:58:00,
2013-03-10 16:03:00,70.3,42.1,30.08,NNE,22,1.1,1.1,36,0.00,CLR,,0.00,WeatherDisplay:10.37,2013-03-10 20:03:00,
2013-03-10 16:08:00,73.6,42.7,30.08,NNE,22,0.0,0.7,33,0.00,CLR,,0.00,WeatherDisplay:10.37,2013-03-10 20:08:00,
2013-03-10 16:13:00,75.7,42.1,30.08,NNE,22,0.0,0.0,30,0.00,CLR,,0.00,WeatherDisplay:10.37,2013-03-10 20:13:00,
2013-03-10 16:18:00,75.0,42.3,30.08,NNE,22,3.5,3.5,31,0.00,CLR,,0.00,WeatherDisplay:10.37,2013-03-10 20:18:00,
2013-03-10 16:23:00,74.5,41.0,30.08,NNE,22,5.8,5.8,30,0.00,CLR,,0.00,WeatherDisplay:10.37,2013-03-10 20:23:00,
2013-03-10 16:28:00,73.4,40.9,30.08,NNE,22,5.8,5.8,31,0.00,CLR,,0.00,WeatherDisplay:10.37,2013-03-10 20:28:00,
2013-03-10 16:33:00,73.0,40.6,30.08,NNE,22,6.9,7.0,31,0.00,CLR,,0.00,WeatherDisplay:10.37,2013-03-10 20:33:00,
2013-03-10 16:38:00,71.4,40.8,30.08,NNE,22,2.3,2.3,33,0.00,CLR,,0.00,WeatherDisplay:10.37,2013-03-10 20:38:00,
2013-03-10 16:43:00,72.3,40.8,30.08,NNE,22,5.8,5.8,32,0.00,CLR,,0.00,WeatherDisplay:10.37,2013-03-10 20:43:00,
2013-03-10 16:48:00,72.5,41.0,30.08,NNE,22,5.8,5.8,32,0.00,CLR,,0.00,WeatherDisplay:10.37,2013-03-10 20:48:00,
2013-03-10 16:53:00,72.7,41.1,30.08,NNE,22,0.0,0.0,32,0.00,CLR,,0.00,WeatherDisplay:10.37,2013-03-10 20:53:00,
2013-03-10 16:58:00,72.3,41.6,30.08,NNE,22,0.0,1.3,33,0.00,CLR,,0.00,WeatherDisplay:10.37,2013-03-10 20:58:00,
2013-03-10 17:03:00,73.2,41.6,30.07,NNE,22,4.6,4.6,32,0.00,CLR,,0.00,WeatherDisplay:10.37,2013-03-10 21:03:00,
2013-03-10 17:09:00,73.8,40.4,30.07,NNE,22,3.6,3.8,30,0.00,CLR,,0.00,WeatherDisplay:10.37,2013-03-10 21:09:00,
2013-03-10 17:14:00,73.4,40.1,30.07,NNE,22,6.9,7.3,30,0.00,CLR,,0.00,WeatherDisplay:10.37,2013-03-10 21:14:00,
2013-03-10 17:19:00,71.4,39.2,30.07,NNE,22,3.5,3.5,31,0.00,CLR,,0.00,WeatherDisplay:10.37,2013-03-10 21:19:00,
2013-03-10 17:24:00,72.0,40.5,30.07,NNE,22,5.8,6.3,32,0.00,CLR,,0.00,WeatherDisplay:10.37,2013-03-10 21:24:00,
2013-03-10 17:29:00,72.1,40.6,30.07,NNE,22,8.1,0.0,32,0.00,CLR,,0.00,WeatherDisplay:10.37,2013-03-10 21:29:00,
2013-03-10 17:34:00,71.1,38.9,30.07,NNE,22,3.5,3.5,31,0.00,CLR,,0.00,WeatherDisplay:10.37,2013-03-10 21:34:00,
2013-03-10 17:39:00,71.6,40.2,30.07,NNE,22,6.5,6.5,32,0.00,CLR,,0.00,WeatherDisplay:10.37,2013-03-10 21:39:00,
2013-03-10 17:44:00,71.8,39.5,30.06,NNE,22,1.1,1.1,31,0.00,CLR,,0.00,WeatherDisplay:10.37,2013-03-10 21:44:00,
2013-03-10 17:49:00,71.2,39.0,30.06,NNE,22,0.0,0.0,31,0.00,CLR,,0.00,WeatherDisplay:10.37,2013-03-10 21:49:00,
2013-03-10 17:54:00,70.0,37.9,30.07,NNE,22,3.5,4.0,31,0.00,CLR,,0.00,WeatherDisplay:10.37,2013-03-10 21:54:00,
2013-03-10 17:59:00,67.8,36.9,30.06,NNE,22,1.4,1.4,32,0.00,CLR,,0.00,WeatherDisplay:10.37,2013-03-10 21:59:00,
2013-03-10 18:04:00,66.9,37.6,30.06,NNE,22,0.0,3.1,34,0.00,CLR,,0.00,WeatherDisplay:10.37,2013-03-10 22:04:00,
2013-03-10 18:09:00,65.8,36.7,30.06,NNE,22,3.9,3.9,34,0.00,CLR,,0.00,WeatherDisplay:10.37,2013-03-10 22:09:00,
2013-03-10 18:14:00,64.9,35.9,30.06,NNE,22,6.9,6.9,34,0.00,CLR,,0.00,WeatherDisplay:10.37,2013-03-10 22:14:00,
2013-03-10 18:19:00,64.2,36.0,30.06,NNE,22,0.0,0.0,35,0.00,CLR,,0.00,WeatherDisplay:10.37,2013-03-10 22:19:00,
2013-03-10 18:24:00,63.7,36.2,30.06,NNE,22,3.5,3.8,36,0.00,CLR,,0.00,WeatherDisplay:10.37,2013-03-10 22:24:00,
2013-03-10 18:29:00,63.3,35.9,30.06,NNE,22,6.9,6.9,36,0.00,CLR,,0.00,WeatherDisplay:10.37,2013-03-10 22:29:00,
2013-03-10 18:34:00,63.0,35.6,30.07,NNE,22,0.0,0.0,36,0.00,CLR,,0.00,WeatherDisplay:10.37,2013-03-10 22:34:00,
2013-03-10 18:39:00,62.4,35.1,30.07,NNE,22,6.9,6.9,36,0.00,CLR,,0.00,WeatherDisplay:10.37,2013-03-10 22:39:00,
2013-03-10 18:44:00,61.7,35.1,30.08,NNE,22,2.3,2.3,37,0.00,CLR,,0.00,WeatherDisplay:10.37,2013-03-10 22:44:00,
2013-03-10 18:49:00,61.3,35.5,30.08,NNE,22,5.8,6.5,38,0.00,CLR,,0.00,WeatherDisplay:10.37,2013-03-10 22:49:00,
2013-03-10 18:54:00,61.0,34.5,30.08,NNE,22,1.1,0.0,37,0.00,CLR,,0.00,WeatherDisplay:10.37,2013-03-10 22:54:00,
2013-03-10 18:59:00,60.3,35.2,30.08,NNE,22,1.1,1.8,39,0.00,CLR,,0.00,WeatherDisplay:10.37,2013-03-10 22:59:00,
2013-03-10 19:04:00,59.9,34.9,30.08,NNE,22,5.1,5.3,39,0.00,CLR,,0.00,WeatherDisplay:10.37,2013-03-10 23:04:00,
2013-03-10 19:09:00,59.2,34.2,30.07,NNE,22,1.1,1.1,39,0.00,CLR,,0.00,WeatherDisplay:10.37,2013-03-10 23:09:00,
2013-03-10 19:14:00,58.8,33.9,30.07,NNE,22,8.1,8.1,39,0.00,CLR,,0.00,WeatherDisplay:10.37,2013-03-10 23:14:00,
2013-03-10 19:19:00,58.8,33.9,30.08,NNE,22,0.0,0.0,39,0.00,CLR,,0.00,WeatherDisplay:10.37,2013-03-10 23:19:00,
2013-03-10 19:24:00,58.5,34.2,30.08,NNE,22,4.6,4.6,40,0.00,CLR,,0.00,WeatherDisplay:10.37,2013-03-10 23:24:00,
2013-03-10 19:29:00,58.1,34.5,30.08,NNE,22,3.5,3.5,41,0.00,CLR,,0.00,WeatherDisplay:10.37,2013-03-10 23:29:00,
2013-03-10 19:34:00,57.9,34.3,30.08,NNE,22,0.0,0.0,41,0.00,CLR,,0.00,WeatherDisplay:10.37,2013-03-10 23:34:00,
2013-03-10 19:39:00,57.7,34.2,30.08,NNE,22,2.3,2.3,41,0.00,CLR,,0.00,WeatherDisplay:10.37,2013-03-10 23:39:00,
2013-03-10 19:44:00,57.4,34.5,30.08,NNE,22,4.6,4.6,42,0.00,CLR,,0.00,WeatherDisplay:10.37,2013-03-10 23:44:00,
2013-03-10 19:49:00,57.4,34.5,30.09,NNE,22,0.0,0.0,42,0.00,CLR,,0.00,WeatherDisplay:10.37,2013-03-10 23:49:00,
2013-03-10 19:54:00,56.8,34.0,30.08,NNE,22,0.0,0.0,42,0.00,CLR,,0.00,WeatherDisplay:10.37,2013-03-10 23:54:00,
2013-03-10 19:59:00,56.5,33.6,30.08,NNE,22,2.3,0.0,42,0.00,CLR,,0.00,WeatherDisplay:10.37,2013-03-10 23:59:00,
2013-03-10 20:04:00,56.5,33.6,30.08,NNE,22,3.5,3.5,42,0.00,CLR,,0.00,WeatherDisplay:10.37,2013-03-11 00:04:00,
2013-03-10 20:09:00,56.1,33.9,30.08,NNE,22,5.8,5.8,43,0.00,CLR,,0.00,WeatherDisplay:10.37,2013-03-11 00:09:00,
2013-03-10 20:14:00,55.9,33.7,30.08,NNE,22,3.5,3.5,43,0.00,CLR,,0.00,WeatherDisplay:10.37,2013-03-11 00:14:00,
2013-03-10 20:19:00,55.9,33.7,30.08,NNE,22,1.1,0.0,43,0.00,CLR,,0.00,WeatherDisplay:10.37,2013-03-11 00:19:00,
2013-03-10 20:24:00,55.8,34.2,30.08,NNE,22,0.0,0.0,44,0.00,CLR,,0.00,WeatherDisplay:10.37,2013-03-11 00:24:00,
2013-03-10 20:29:00,55.6,34.0,30.08,NNE,22,2.3,2.3,44,0.00,CLR,,0.00,WeatherDisplay:10.37,2013-03-11 00:29:00,
2013-03-10 20:34:00,55.2,33.7,30.08,NNE,22,5.8,6.3,44,0.00,CLR,,0.00,WeatherDisplay:10.37,2013-03-11 00:34:00,
2013-03-10 20:39:00,55.0,33.5,30.08,NNE,22,1.7,1.7,44,0.00,CLR,,0.00,WeatherDisplay:10.37,2013-03-11 00:39:00,
2013-03-10 20:44:00,55.0,33.5,30.09,NNE,22,0.0,0.0,44,0.00,CLR,,0.00,WeatherDisplay:10.37,2013-03-11 00:44:00,
2013-03-10 20:49:00,54.7,33.7,30.08,NNE,22,3.5,3.5,45,0.00,CLR,,0.00,WeatherDisplay:10.37,2013-03-11 00:49:00,
2013-03-10 20:54:00,54.3,33.4,30.08,NNE,22,5.8,5.8,45,0.00,CLR,,0.00,WeatherDisplay:10.37,2013-03-11 00:54:00,
2013-03-10 20:59:00,54.3,33.4,30.08,NNE,22,0.0,0.0,45,0.00,CLR,,0.00,WeatherDisplay:10.37,2013-03-11 00:59:00,
2013-03-10 21:04:00,54.1,33.2,30.08,NNE,22,5.8,5.8,45,0.00,CLR,,0.00,WeatherDisplay:10.37,2013-03-11 01:04:00,
2013-03-10 21:09:00,54.0,33.1,30.08,NNE,22,6.9,6.9,45,0.00,CLR,,0.00,WeatherDisplay:10.37,2013-03-11 01:09:00,
2013-03-10 21:14:00,54.0,33.6,30.08,NNE,22,3.5,3.5,46,0.00,CLR,,0.00,WeatherDisplay:10.37,2013-03-11 01:14:00,
2013-03-10 21:19:00,53.8,33.5,30.08,NNE,22,3.5,3.5,46,0.00,CLR,,0.00,WeatherDisplay:10.37,2013-03-11 01:19:00,
2013-03-10 21:24:00,53.8,33.5,30.08,NNE,22,0.0,0.0,46,0.00,CLR,,0.00,WeatherDisplay:10.37,2013-03-11 01:24:00,
2013-03-10 21:29:00,53.8,33.5,30.08,NNE,22,3.5,3.5,46,0.00,CLR,,0.00,WeatherDisplay:10.37,2013-03-11 01:29:00,
2013-03-10 21:34:00,53.6,33.3,30.08,NNE,22,6.9,7.0,46,0.00,CLR,,0.00,WeatherDisplay:10.37,2013-03-11 01:34:00,
2013-03-10 21:39:00,53.4,33.1,30.08,NNE,22,0.0,0.0,46,0.00,CLR,,0.00,WeatherDisplay:10.37,2013-03-11 01:39:00,
2013-03-10 21:44:00,53.4,33.1,30.09,NNE,22,5.8,5.8,46,0.00,CLR,,0.00,WeatherDisplay:10.37,2013-03-11 01:44:00,
2013-03-10 21:49:00,53.4,33.1,30.10,NNE,22,5.8,6.5,46,0.00,CLR,,0.00,WeatherDisplay:10.37,2013-03-11 01:49:00,
2013-03-10 21:54:00,53.4,33.7,30.10,NNE,22,5.8,5.8,47,0.00,CLR,,0.00,WeatherDisplay:10.37,2013-03-11 01:54:00,
2013-03-10 21:59:00,53.2,33.0,30.08,NNE,22,4.6,4.6,46,0.00,CLR,,0.00,WeatherDisplay:10.37,2013-03-11 01:59:00,
2013-03-10 22:04:00,53.2,33.5,30.08,NNE,22,5.8,5.8,47,0.00,CLR,,0.00,WeatherDisplay:10.37,2013-03-11 02:04:00,
2013-03-10 22:09:00,53.2,33.0,30.08,NNE,22,5.8,5.8,46,0.00,CLR,,0.00,WeatherDisplay:10.37,2013-03-11 02:09:00,
2013-03-10 22:14:00,53.2,33.5,30.08,NNE,22,1.1,1.3,47,0.00,CLR,,0.00,WeatherDisplay:10.37,2013-03-11 02:14:00,
2013-03-10 22:19:00,53.1,33.3,30.08,NNE,22,8.1,8.1,47,0.00,CLR,,0.00,WeatherDisplay:10.37,2013-03-11 02:19:00,
2013-03-10 22:24:00,52.9,33.2,30.08,NNE,22,5.8,5.8,47,0.00,CLR,,0.00,WeatherDisplay:10.37,2013-03-11 02:24:00,
2013-03-10 22:29:00,52.9,33.2,30.08,NNE,22,0.0,0.0,47,0.00,CLR,,0.00,WeatherDisplay:10.37,2013-03-11 02:29:00,
2013-03-10 22:34:00,52.9,33.2,30.08,NNE,22,5.6,5.6,47,0.00,CLR,,0.00,WeatherDisplay:10.37,2013-03-11 02:34:00,
2013-03-10 22:40:00,52.9,33.2,30.08,NNE,22,8.1,8.1,47,0.00,CLR,,0.00,WeatherDisplay:10.37,2013-03-11 02:40:00,
2013-03-10 22:45:00,52.9,33.2,30.09,NNE,22,1.1,1.1,47,0.00,CLR,,0.00,WeatherDisplay:10.37,2013-03-11 02:45:00,
2013-03-10 22:50:00,52.9,33.2,30.09,NNE,22,10.4,10.4,47,0.00,CLR,,0.00,WeatherDisplay:10.37,2013-03-11 02:50:00,
2013-03-10 22:55:00,52.7,33.0,30.08,NNE,22,2.2,2.2,47,0.00,CLR,,0.00,WeatherDisplay:10.37,2013-03-11 02:55:00,
2013-03-10 23:00:00,52.7,33.0,30.08,NNE,22,0.0,0.0,47,0.00,CLR,,0.00,WeatherDisplay:10.37,2013-03-11 03:00:00,
2013-03-10 23:05:00,52.5,32.9,30.08,NNE,22,6.9,7.5,47,0.00,CLR,,0.00,WeatherDisplay:10.37,2013-03-11 03:05:00,
2013-03-10 23:10:00,52.3,32.7,30.07,NNE,22,5.1,5.3,47,0.00,CLR,,0.00,WeatherDisplay:10.37,2013-03-11 03:10:00,
2013-03-10 23:15:00,52.2,33.0,30.08,NNE,22,6.9,6.9,48,0.00,CLR,,0.00,WeatherDisplay:10.37,2013-03-11 03:15:00,
2013-03-10 23:20:00,52.0,32.9,30.08,NNE,22,2.3,2.3,48,0.00,CLR,,0.00,WeatherDisplay:10.37,2013-03-11 03:20:00,
2013-03-10 23:25:00,52.0,32.9,30.08,NNE,22,3.0,6.0,48,0.00,CLR,,0.00,WeatherDisplay:10.37,2013-03-11 03:25:00,
2013-03-10 23:30:00,52.0,32.9,30.08,NNE,22,5.8,5.8,48,0.00,CLR,,0.00,WeatherDisplay:10.37,2013-03-11 03:30:00,
2013-03-10 23:35:00,52.0,32.9,30.08,NNE,22,8.0,10.0,48,0.00,CLR,,0.00,WeatherDisplay:10.37,2013-03-11 03:35:00,
2013-03-10 23:40:00,52.0,32.9,30.08,NNE,22,1.0,3.0,48,0.00,CLR,,0.00,WeatherDisplay:10.37,2013-03-11 03:40:00,
2013-03-10 23:45:00,52.0,32.9,30.08,NNE,22,0.0,2.0,48,0.00,CLR,,0.00,WeatherDisplay:10.37,2013-03-11 03:45:00,
2013-03-10 23:50:00,51.9,32.8,30.08,NNE,22,6.0,6.0,48,0.00,CLR,,0.00,WeatherDisplay:10.37,2013-03-11 03:50:00,
2013-03-10 23:55:00,51.6,33.1,30.08,NNE,22,3.0,8.0,49,0.00,CLR,,0.00,WeatherDisplay:10.37,2013-03-11 03:55:00,